User: anonymous   Login
Location: Allos
(44.2333°N, 6.6333°E)
Time: 08:26:05
(UTC+00:00)
Language:

M-CUBED/EXP-1 PRIME - Orbit

View from above orbital plane
View from above orbital plane
View from above satellite
View from above satellite

Ground track
Ground track

The orbit data is extracted from the following two-line orbital elements,

1 37855U 11061F   21130.72657980  .00000848  00000-0  48514-4 0  9994
2 37855 101.7148  34.5736 0167181 182.8663 177.1608 15.07537864520494
Epoch (UTC): 10 May 2021 17:26:16
Eccentricity: 0.0167181
inclination: 101.7148°
perigee height: 428 km
apogee height: 659 km
right ascension of ascending node: 34.5736°
argument of perigee: 182.8663°
revolutions per day: 15.07537864
mean anomaly at epoch: 177.1608°
orbit number at epoch: 52049

The dashed part of the orbit path shows where the satellite is in the earth's shadow,  

DLR